Date String (YYYY-MM-DD hh:mm:ss) UTC,Instrument flags,Ambient pressure (hPa),Sample flow (lpm),Bypass flow (lpm),Sample temperature (°C),Ambient temperature (°C),ASC tube jacket temperature (°C),LED temperature (°C),Box temperature (°C),Sample RH (%),Span deviation,Mass concentration (μg/m³),Mass concentration (μg/m³),Mass concentration (μg/m³)
DateTimeUTC,F1_M11,P_M11,Q1_M11,Q2_M11,T1_M11,T2_M11,T3_M11,T4_M11,T5_M11,U1_M11,ZSPAN_M11,X0_M11,X2_M11,X1_M11
2022-11-14 04:00:00,,0826.0,5.00,0.00,22.6,21.1,00.0,31.5,24.5,07.6,0000.0,0010.84,0004.37,0003.69
2022-11-14 04:01:00,,0826.0,5.02,0.00,22.6,21.1,00.0,31.5,24.5,07.6,0000.0,0010.41,0004.37,0003.70
2022-11-14 04:02:00,,0826.0,4.98,0.00,22.6,21.1,00.0,31.5,24.5,07.7,0000.0,0009.98,0004.39,0003.71
2022-11-14 04:03:00,,0826.0,5.00,0.00,22.6,21.1,00.0,31.4,24.5,07.7,0000.0,0009.95,0004.38,0003.71
2022-11-14 04:04:00,,0826.0,5.00,0.00,22.6,21.2,00.0,31.4,24.5,07.7,0000.0,0010.74,0004.40,0003.71
2022-11-14 04:05:00,,0826.0,5.00,0.00,22.6,21.2,00.0,31.4,24.5,07.7,0000.0,0011.62,0004.39,0003.73
2022-11-14 04:06:00,,0826.0,5.01,0.00,22.6,21.2,00.0,31.4,24.5,07.8,0000.0,0012.50,0004.42,0003.73
2022-11-14 04:07:00,,0826.0,5.01,0.00,22.6,21.2,00.0,31.4,24.5,07.7,0000.0,0012.22,0004.41,0003.73
2022-11-14 04:08:00,,0826.0,4.99,0.00,22.6,21.2,00.0,31.4,24.5,07.7,0000.0,0011.75,0004.43,0003.74
2022-11-14 04:09:00,,0826.0,4.99,0.00,22.6,21.2,00.0,31.4,24.5,07.7,0000.0,0011.62,0004.40,0003.73
2022-11-14 04:10:00,,0826.0,5.01,0.00,22.6,21.2,00.0,31.4,24.5,07.7,0000.0,0011.33,0004.38,0003.74
2022-11-14 04:11:00,,0826.1,5.00,0.00,22.6,21.2,00.0,31.4,24.5,07.6,0000.0,0011.42,0004.36,0003.73
2022-11-14 04:12:00,,0826.2,5.00,0.00,22.6,21.2,00.0,31.4,24.6,07.6,0000.0,0011.89,0004.37,0003.73
2022-11-14 04:13:00,,0826.2,5.01,0.00,22.7,21.2,00.0,31.4,24.6,07.7,0000.0,0011.87,0004.36,0003.74
2022-11-14 04:14:00,,0826.2,5.01,0.00,22.7,21.2,00.0,31.4,24.6,07.6,0000.0,0011.78,0004.39,0003.74
2022-11-14 04:15:00,,0826.2,4.99,0.00,22.7,21.2,00.0,31.4,24.6,07.6,0000.0,0010.79,0004.38,0003.74
2022-11-14 04:16:00,,0826.2,5.00,0.00,22.7,21.2,00.0,31.4,24.6,07.6,0000.0,0009.62,0004.38,0003.74
2022-11-14 04:17:00,,0826.2,4.99,0.00,22.7,21.2,00.0,31.4,24.6,07.6,0000.0,0008.32,0004.32,0003.74
2022-11-14 04:18:00,,0826.2,5.01,0.00,22.7,21.2,00.0,31.4,24.5,07.6,0000.0,0008.28,0004.31,0003.75
2022-11-14 04:19:00,,0826.2,5.00,0.00,22.7,21.2,00.0,31.4,24.6,07.6,0000.0,0008.38,0004.30,0003.75
2022-11-14 04:20:00,,0826.2,4.99,0.00,22.7,21.2,00.0,31.4,24.6,07.6,0000.0,0008.59,0004.32,0003.77
2022-11-14 04:21:00,,0826.2,5.02,0.00,22.7,21.2,00.0,31.4,24.6,07.6,0000.0,0008.57,0004.31,0003.77
2022-11-14 04:22:00,,0826.2,4.98,0.00,22.7,21.2,00.0,31.4,24.6,07.6,0000.0,0008.34,0004.29,0003.78
2022-11-14 04:23:00,,0826.2,5.03,0.00,22.7,21.2,00.0,31.4,24.6,07.6,0000.0,0007.87,0004.28,0003.78
2022-11-14 04:24:00,,0826.2,4.99,0.00,22.7,21.2,00.0,31.4,24.6,07.6,0000.0,0007.94,0004.28,0003.79
2022-11-14 04:25:00,,0826.2,5.01,0.00,22.7,21.2,00.0,31.4,24.6,07.6,0000.0,0007.96,0004.26,0003.79
2022-11-14 04:26:00,,0826.2,4.98,0.00,22.7,21.2,00.0,31.4,24.6,07.6,0000.0,0008.15,0004.25,0003.78
2022-11-14 04:27:00,,0826.2,5.02,0.00,22.7,21.2,00.0,31.4,24.6,07.6,0000.0,0008.51,0004.24,0003.78
2022-11-14 04:28:00,,0826.2,4.98,0.00,22.7,21.2,00.0,31.4,24.6,07.5,0000.0,0008.77,0004.27,0003.78
2022-11-14 04:29:00,,0826.2,5.02,0.00,22.7,21.2,00.0,31.4,24.6,07.6,0000.0,0008.79,0004.26,0003.77
2022-11-14 04:30:00,,0826.2,4.99,0.00,22.7,21.2,00.0,31.4,24.6,07.6,0000.0,0008.66,0004.27,0003.77
2022-11-14 04:31:00,,0826.2,5.01,0.00,22.7,21.2,00.0,31.4,24.5,07.6,0000.0,0009.30,0004.26,0003.76
2022-11-14 04:32:00,,0826.2,4.98,0.00,22.7,21.2,00.0,31.4,24.6,07.6,0000.0,0010.22,0004.28,0003.75
2022-11-14 04:33:00,,0826.2,5.00,0.00,22.7,21.9,00.0,31.4,24.8,07.6,0000.0,0010.74,0004.27,0003.73
2022-11-14 04:34:00,,0826.2,5.00,0.00,22.8,22.6,00.0,31.4,24.9,07.6,0000.0,0010.90,0004.28,0003.73
2022-11-14 04:35:00,,0826.2,4.99,0.00,22.9,22.5,00.0,31.4,24.9,07.6,0000.0,0011.63,0004.27,0003.72
2022-11-14 04:36:00,,0826.1,5.01,0.00,22.9,22.3,00.0,31.5,24.9,07.6,0000.0,0011.74,0004.27,0003.71
2022-11-14 04:37:00,,0826.2,4.99,0.00,22.9,22.1,00.0,31.5,24.9,07.5,0000.0,0011.71,0004.26,0003.70
2022-11-14 04:38:00,,0826.2,5.00,0.00,22.9,22.0,00.0,31.5,24.8,07.5,0000.0,0011.52,0004.28,0003.69
2022-11-14 04:39:00,,0826.2,5.00,0.00,22.9,21.9,00.0,31.6,24.8,07.5,0000.0,0011.24,0004.24,0003.69
2022-11-14 04:40:00,,0826.2,5.00,0.00,22.9,21.8,00.0,31.6,24.8,07.5,0000.0,0011.29,0004.24,0003.68
2022-11-14 04:41:00,,0826.2,5.00,0.00,22.9,21.8,00.0,31.6,24.8,07.5,0000.0,0011.81,0004.18,0003.66
2022-11-14 04:42:00,,0826.2,5.00,0.00,22.9,21.7,00.0,31.6,24.8,07.5,0000.0,0011.63,0004.18,0003.66
2022-11-14 04:43:00,,0826.2,5.01,0.00,22.9,21.7,00.0,31.6,24.8,07.5,0000.0,0011.14,0004.15,0003.65
2022-11-14 04:44:00,,0826.2,4.98,0.00,22.9,21.6,00.0,31.6,24.8,07.5,0000.0,0011.27,0004.18,0003.65
2022-11-14 04:45:00,,0826.2,5.02,0.00,22.9,21.6,00.0,31.6,24.8,07.5,0000.0,0012.82,0004.17,0003.64
2022-11-14 04:46:00,,0826.2,5.00,0.00,22.9,21.5,00.0,31.6,24.8,07.5,0000.0,0012.17,0004.19,0003.64
2022-11-14 04:47:00,,0826.2,5.00,0.00,22.9,21.5,00.0,31.6,24.8,07.5,0000.0,0012.84,0004.20,0003.64
2022-11-14 04:48:00,,0826.1,4.99,0.00,22.9,21.5,00.0,31.6,24.8,07.5,0000.0,0013.36,0004.22,0003.64
2022-11-14 04:49:00,,0826.1,5.02,0.00,22.9,21.5,00.0,31.6,24.8,07.5,0000.0,0013.28,0004.21,0003.65
2022-11-14 04:50:00,,0826.0,4.99,0.00,22.9,21.5,00.0,31.6,24.8,07.5,0000.0,0013.52,0004.23,0003.65
2022-11-14 04:51:00,,0826.0,5.02,0.00,22.9,21.5,00.0,31.6,24.8,07.5,0000.0,0013.84,0004.26,0003.65
2022-11-14 04:52:00,,0826.0,4.98,0.00,22.8,21.4,00.0,31.6,24.7,07.6,0000.0,0013.21,0004.29,0003.65
2022-11-14 04:53:00,,0826.0,5.01,0.00,22.8,21.4,00.0,31.6,24.7,07.6,0000.0,0012.71,0004.28,0003.65
2022-11-14 04:54:00,,0826.0,5.01,0.00,22.8,21.4,00.0,31.6,24.7,07.6,0000.0,0012.52,0004.30,0003.66
2022-11-14 04:55:00,,0826.0,4.99,0.00,22.8,21.4,00.0,31.6,24.7,07.6,0000.0,0012.03,0004.33,0003.66
2022-11-14 04:56:00,,0826.0,5.02,0.00,22.8,21.4,00.0,31.6,24.7,07.6,0000.0,0010.46,0004.36,0003.66
2022-11-14 04:57:00,,0826.0,4.99,0.00,22.8,21.4,00.0,31.6,24.7,07.6,0000.0,0010.44,0004.34,0003.66
2022-11-14 04:58:00,,0826.0,5.00,0.00,22.8,21.4,00.0,31.5,24.7,07.6,0000.0,0009.50,0004.34,0003.66
2022-11-14 04:59:00,,0826.0,5.01,0.00,22.8,21.4,00.0,31.5,24.7,07.5,0000.0,0009.07,0004.34,0003.66
